Terminal Aerodrome Forecast
Issued by NWS Upton, NY

Home | Current Version | Previous Version | Text Only | Print | Product List | Glossary On
Versions: 1 2 3 4 5 6 7 8 9 10 11 12 13 14 15 16 17 18 19 20 21 22 23 24 25 26 27 28 29 30 31 32 33 34 35 36 37 38 39 40 41 42 43 44 45 46 47 48 49 50
000
FTUS41 KOKX 170832 AAA
TAFBDR
TAF AMD
KBDR 170832Z 1709/1806 23006KT P6SM SCT150 BKN250
     FM171100 22008KT P6SM SCT150 BKN250
     FM171700 21010KT P6SM VCSH SCT150 BKN250
     FM172200 22008KT P6SM VCSH FEW025 BKN040 PROB30 1722/1803 3SM
      TSRA BKN025 OVC040CB
     FM180300 03005KT 6SM -SHRA BKN020 OVC040=

USA.gov is the U.S. government's official web portal to all federal, state and local government web resources and services.